Regional Weather Roundup
Issued by NWS

Home | Current Version | Previous Version | Graphics & Text | Print | Product List | Glossary On
Versions: 1 2 3 4 5 6 7 8 9 10 11 12 13 14 15 16 17 18 19 20 21 22 23 24 25 26 27 28 29 30 31 32 33 34 35 36 37 38 39 40 41 42 43 44 45 46 47 48 49 50
000
ASUS44 KMEG 181110
RWRTN
TENNESSEE HOURLY STATE WEATHER ROUNDUP
NATIONAL WEATHER SERVICE MEMPHIS TN
500 AM CST WED JAN 18 2017

TNZ002-004-019-021-049-052-054-088>092-181200-
WEST TENNESSEE

CITY           SKY/WX    TMP DP  RH WIND       PRES   REMARKS
MEMPHIS INTL   CLOUDY    46  40  79 NE6       30.17R
NWS MEMPHIS      N/A     44 N/A N/A MISG        N/A
JACKSON        CLOUDY    39  38  96 CALM      30.19R
DYERSBURG      CLOUDY    39  37  93 CALM      30.19R
UNION CITY     CLOUDY    43  43 100 CALM      30.17S
PARIS          CLOUDY    41  37  87 CALM      30.17F
HUNTINGDON     CLOUDY    45  41  87 VRB3      30.17F
$$

TNZ008-025-027-028-033-062-065-066-181200-
NORTH MIDDLE TENNESSEE

CITY           SKY/WX    TMP DP  RH WIND       PRES   REMARKS
NASHVILLE      CLOUDY    47  40  76 N7        30.20R
PORTLAND       CLOUDY    43  41  93 NW6       30.18S
CLARKSVILLE    CLOUDY    44  38  79 NW3       30.20R
SMYRNA         CLOUDY    47  43  86 N6        30.20R
GALLATIN       CLOUDY    45  41  87 CALM      30.22R
CROSSVILLE     CLOUDY    46  42  86 W9        30.14R
$$

TNZ061-075-076-078-094-096-097-181200-
SOUTH MIDDLE TENNESSEE

CITY           SKY/WX    TMP DP  RH WIND       PRES   REMARKS
FAYETTEVILLE   CLOUDY    50  48  93 CALM      30.15F
TULLAHOMA      PTCLDY    45  43  93 NW6       30.16S
WINCHESTER     CLOUDY    50  46  87 N6        30.15F
MCMINNVILLE    CLOUDY    48  45  87 W5        30.16R
COLUMBIA       CLOUDY    46  46 100 CALM      30.17R
SHELBYVILLE    CLOUDY    48  45  87 NW7       30.17S
$$

TNZ017-018-042-046-047-181200-
NORTHEAST TENNESSEE

CITY           SKY/WX    TMP DP  RH WIND       PRES   REMARKS
TRI CITIES     PTCLDY    54  46  74 W13       30.07R
ELIZABETHTON   DRIZZLE   55  48  76 W6G13     30.06R
$$

TNZ012-013-036-069-073-074-181200-
CENTRAL EAST TENNESSEE

CITY           SKY/WX    TMP DP  RH WIND       PRES   REMARKS
KNOXVILLE      CLOUDY    54  47  77 W13       30.12R
OAK RIDGE      CLOUDY    51  44  77 VRB5      30.13R
GATLINBURG     CLOUDY    55  52  88 SW7       30.10R
MORRISTOWN     CLOUDY    52  46  82 NW9       30.10R
JACKSBORO      CLOUDY    52  45  76 VRB3      30.15R
$$

TNZ083-085-099-181200-
SOUTHEAST TENNESSEE

CITY           SKY/WX    TMP DP  RH WIND       PRES   REMARKS
CHATTANOOGA    DRIZZLE   59  53  80 SW6       30.12R
$$

SKY/WX REPORTED AS FAIR MEANS FEW OR NO CLOUDS BELOW
12 THOUSAND FEET.




USA.gov is the U.S. government's official web portal to all federal, state and local government web resources and services.